| time (UTC) | temp C | wind direction | speed KPH | gust KPH | rain 1hr cm | rain 24hr cm | rain mn cm | humidity % | barometer mb |
| 20260506110628 | 23 | 202 | 1.6 | 3.2 | 0.00 | 0.00 | 0.00 | 90 | 1006.8 |
| 20260506105726 | 23 | 202 | 4.8 | 6.4 | 0.00 | 0.00 | 0.00 | 90 | 1006.7 |
| 20260506104726 | 23 | 196 | 4.8 | 9.7 | 0.00 | 0.00 | 0.00 | 90 | 1006.7 |
| 20260506103728 | 23 | 225 | 1.6 | 3.2 | 0.00 | 0.00 | 0.00 | 89 | 1006.8 |
| 20260506102727 | 24 | 202 | 1.6 | 4.8 | 0.00 | 0.00 | 0.00 | 89 | 1006.7 |
| 20260506101729 | 24 | 181 | 3.2 | 6.4 | 0.00 | 0.00 | 0.00 | 89 | 1006.6 |
| 20260506100727 | 24 | 220 | 4.8 | 6.4 | 0.00 | 0.00 | 0.00 | 88 | 1006.6 |
| 20260506095729 | 24 | 225 | 3.2 | 6.4 | 0.00 | 0.00 | 0.00 | 88 | 1006.5 |
| 20260506094826 | 24 | 206 | 4.8 | 11.3 | 0.00 | 0.00 | 0.00 | 88 | 1006.3 |
| 20260506093828 | 24 | 225 | 1.6 | 4.8 | 0.00 | 0.00 | 0.00 | 88 | 1006.2 |
| 20260506092927 | 24 | 202 | 3.2 | 6.4 | 0.00 | 0.00 | 0.00 | 88 | 1006.3 |
| 20260506092828 | 24 | 202 | 6.4 | 8.0 | 0.00 | 0.00 | 0.00 | 88 | 1006.3 |
| 20260506091927 | 24 | 225 | 6.4 | 9.7 | 0.00 | 0.00 | 0.00 | 88 | 1006.3 |
| 20260506090927 | 24 | 225 | 4.8 | 6.4 | 0.00 | 0.00 | 0.00 | 88 | 1006.3 |
| 20260506085926 | 25 | 225 | 4.8 | 8.0 | 0.00 | 0.00 | 0.00 | 88 | 1006.2 |
| 20260506084942 | 25 | 211 | 4.8 | 8.0 | 0.00 | 0.00 | 0.00 | 87 | 1006.3 |
| 20260506083943 | 25 | 190 | 9.7 | 14.5 | 0.00 | 0.00 | 0.00 | 87 | 1006.1 |
| 20260506083028 | 25 | 202 | 6.4 | 9.7 | 0.00 | 0.00 | 0.00 | 87 | 1006.3 |
| 20260506082027 | 25 | 225 | 4.8 | 8.0 | 0.00 | 0.00 | 0.00 | 87 | 1006.3 |
| 20260506081928 | 25 | 219 | 6.4 | 9.7 | 0.00 | 0.00 | 0.00 | 87 | 1006.3 |
| 20260506080929 | 25 | 225 | 4.8 | 8.0 | 0.00 | 0.00 | 0.00 | 86 | 1006.6 |
| 20260505233605 | 27 | 219 | 12.9 | 17.7 | 0.00 | 0.00 | 0.00 | 73 | 1004.5 |
| 20260505232605 | 27 | 228 | 8.0 | 20.9 | 0.00 | 0.00 | 0.00 | 73 | 1004.5 |
| 20260505231702 | 27 | 228 | 8.0 | 16.1 | 0.00 | 0.00 | 0.00 | 72 | 1004.5 |
| 20260505231603 | 27 | 212 | 9.7 | 14.5 | 0.00 | 0.00 | 0.00 | 72 | 1004.6 |
| 20260505230603 | 27 | 204 | 11.3 | 20.9 | 0.00 | 0.00 | 0.00 | 71 | 1004.5 |
| 20260505225603 | 28 | 217 | 16.1 | 24.1 | 0.00 | 0.00 | 0.00 | 71 | 1004.5 |
| 20260505224604 | 28 | 243 | 8.0 | 16.1 | 0.00 | 0.00 | 0.00 | 70 | 1004.3 |
| 20260505223604 | 28 | 225 | 14.5 | 17.7 | 0.00 | 0.00 | 0.00 | 70 | 1004.2 |
| 20260505222603 | 28 | 229 | 8.0 | 12.9 | 0.00 | 0.00 | 0.00 | 69 | 1004.4 |
| 20260505222504 | 28 | 232 | 8.0 | 14.5 | 0.00 | 0.00 | 0.00 | 69 | 1004.5 |
| 20260505221504 | 28 | 225 | 6.4 | 11.3 | 0.00 | 0.00 | 0.00 | 71 | 1004.4 |
| 20260505221405 | 28 | 237 | 8.0 | 17.7 | 0.00 | 0.00 | 0.00 | 71 | 1004.3 |
| 20260505220403 | 28 | 229 | 14.5 | 20.9 | 0.00 | 0.00 | 0.00 | 71 | 1004.5 |
| 20260505215404 | 28 | 223 | 9.7 | 16.1 | 0.00 | 0.00 | 0.00 | 71 | 1004.8 |
| 20260505123912 | 22 | 219 | 4.8 | 11.3 | 0.00 | 0.00 | 0.00 | 85 | 1006.7 |
| 20260505123813 | 22 | 224 | 4.8 | 9.7 | 0.00 | 0.00 | 0.00 | 85 | 1006.8 |
| 20260505122812 | 22 | 228 | 6.4 | 9.7 | 0.00 | 0.00 | 0.00 | 85 | 1006.8 |
| 20260505121812 | 22 | 224 | 6.4 | 11.3 | 0.00 | 0.00 | 0.00 | 86 | 1006.7 |
| 20260505121731 | 22 | 223 | 11.3 | 12.9 | 0.00 | 0.00 | 0.00 | 86 | 1006.8 |
| 20260505120815 | 22 | 236 | 3.2 | 6.4 | 0.00 | 0.00 | 0.00 | 86 | 1006.6 |
| 20260505115813 | 22 | 225 | 6.4 | 16.1 | 0.00 | 0.00 | 0.00 | 86 | 1006.4 |
| 20260505114815 | 22 | 229 | 6.4 | 11.3 | 0.00 | 0.00 | 0.00 | 86 | 1006.3 |
| 20260505114713 | 22 | 228 | 4.8 | 9.7 | 0.00 | 0.00 | 0.00 | 86 | 1006.4 |
| 20260505113714 | 22 | 224 | 8.0 | 12.9 | 0.00 | 0.00 | 0.00 | 86 | 1006.6 |
| 20260505112714 | 22 | 225 | 6.4 | 14.5 | 0.00 | 0.00 | 0.00 | 86 | 1006.6 |